This is the latest recevied weather packets stored in our database for station/object SQ5SUI-3. If no packets are shown the sender has not sent any weather packets the latest 10 day(s).
| Time | Temp. | Humidity | Pressure | Rain* | Wind** | Luminosity | Snow |
|---|---|---|---|---|---|---|---|
| 1777526721 | 2.22° C | 58% | 991.6 hPa | 0 mm | - | - | - |
| 1777524920 | 1.67° C | 62% | 991.7 hPa | 0 mm | - | - | - |
| 1777523122 | 0.56° C | 65% | 991.8 hPa | 0 mm | - | - | - |
| 1777521320 | 0° C | 68% | 992 hPa | 0 mm | - | - | - |
| 1777519521 | -0.56° C | 70% | 992.1 hPa | 0 mm | - | - | - |
| 1777517722 | -0.56° C | 70% | 991.9 hPa | 0 mm | - | - | - |
| 1777515922 | -0.56° C | 71% | 991.9 hPa | 0 mm | - | - | - |
| 1777514120 | -1.67° C | 76% | 992.1 hPa | 0 mm | - | - | - |
| 1777512321 | -1.67° C | 73% | 992.1 hPa | 0 mm | - | - | - |
| 1777510522 | -1.11° C | 75% | 992.4 hPa | 0 mm | - | - | - |
| 1777508722 | -2.78° C | 76% | 992.4 hPa | 0 mm | - | - | - |
| 1777506922 | -2.78° C | 74% | 992.2 hPa | 0 mm | - | - | - |
| 1777503321 | -2.22° C | 73% | 992.5 hPa | 0 mm | - | - | - |
| 1777488922 | 2.78° C | 54% | 994.1 hPa | 0 mm | - | - | - |
| 1777483521 | 5.56° C | 47% | 994.1 hPa | 0 mm | - | - | - |
| 1777479922 | 7.22° C | 42% | 994.5 hPa | 0 mm | - | - | - |
| 1777478122 | 6.67° C | 41% | 994.5 hPa | 0 mm | - | - | - |
| 1777476322 | 6.67° C | 43% | 994.2 hPa | 0 mm | - | - | - |
| 1777469121 | 6.67° C | 44% | 994 hPa | 0 mm | - | - | - |
| 1777467321 | 5.56° C | 44% | 994.1 hPa | 0 mm | - | - | - |
| 1777463722 | 5.56° C | 43% | 994.3 hPa | 0 mm | - | - | - |
| 1777460122 | 6.67° C | 38% | 994.6 hPa | 0 mm | - | - | - |
| 1777458321 | 7.22° C | 33% | 994.6 hPa | 0 mm | - | - | - |
| 1777454721 | 6.11° C | 40% | 994.7 hPa | 0 mm | - | - | - |
| 1777452921 | 6.67° C | 40% | 994.8 hPa | 0 mm | - | - | - |
* Rain latest hour (hover to see other rain measurements)
** Current wind speed in m/s (hover to see current wind gust speed)